| time (UTC) | temp C | wind direction | speed KPH | gust KPH | rain 1hr cm | rain 24hr cm | rain mn cm | humidity % | barometer mb |
| 20260904194606 | 20 | 0 | 0.0 | 0.0 | 0.00 | 0.00 | 0.00 | 52 | 1024.3 |
| 20260904193107 | 21 | 0 | 0.0 | 0.0 | 0.00 | 0.00 | 0.00 | 50 | 1024.2 |
| 20260904191607 | 21 | 0 | 0.0 | 0.0 | 0.00 | 0.00 | 0.00 | 47 | 1023.8 |
| 20260904190107 | 22 | 0 | 0.0 | 0.0 | 0.00 | 0.00 | 0.00 | 45 | 1023.8 |
| 20260904184610 | 23 | 0 | 0.0 | 0.0 | 0.00 | 0.00 | 0.00 | 43 | 1023.6 |
| 20260904183110 | 24 | 0 | 0.0 | 0.0 | 0.00 | 0.00 | 0.00 | 41 | 1023.4 |
| 20260904181607 | 25 | 0 | 0.0 | 0.0 | 0.00 | 0.00 | 0.00 | 38 | 1023.2 |
| 20260904180112 | 25 | 0 | 0.0 | 0.0 | 0.00 | 0.00 | 0.00 | 37 | 1023.4 |
| 20260904174605 | 26 | 0 | 0.0 | 3.2 | 0.00 | 0.00 | 0.00 | 36 | 1023.3 |
| 20260904173105 | 27 | 0 | 1.6 | 4.8 | 0.00 | 0.00 | 0.00 | 33 | 1023.3 |
| 20260904171605 | 27 | 197 | 1.6 | 9.7 | 0.00 | 0.00 | 0.00 | 31 | 1023.2 |
| 20260904170107 | 28 | 281 | 3.2 | 11.3 | 0.00 | 0.00 | 0.00 | 28 | 1023.2 |
| 20260904164613 | 28 | 176 | 3.2 | 11.3 | 0.00 | 0.00 | 0.00 | 30 | 1023.1 |
| 20260904163109 | 29 | 184 | 3.2 | 14.5 | 0.00 | 0.00 | 0.00 | 29 | 1023.1 |
| 20260904161604 | 29 | 117 | 1.6 | 11.3 | 0.00 | 0.00 | 0.00 | 28 | 1023.0 |
| 20260904160108 | 30 | 132 | 1.6 | 14.5 | 0.00 | 0.00 | 0.00 | 25 | 1023.1 |
| 20260904154606 | 30 | 253 | 3.2 | 17.7 | 0.00 | 0.00 | 0.00 | 24 | 1023.2 |
| 20260904153110 | 31 | 183 | 1.6 | 17.7 | 0.00 | 0.00 | 0.00 | 24 | 1023.2 |
| 20260904151606 | 31 | 228 | 1.6 | 11.3 | 0.00 | 0.00 | 0.00 | 24 | 1023.2 |
| 20260904150101 | 31 | 190 | 4.8 | 12.9 | 0.00 | 0.00 | 0.00 | 22 | 1023.4 |
| 20260904144604 | 31 | 293 | 1.6 | 11.3 | 0.00 | 0.00 | 0.00 | 22 | 1023.5 |
| 20260904143106 | 31 | 119 | 4.8 | 12.9 | 0.00 | 0.00 | 0.00 | 22 | 1023.4 |
| 20260904141625 | 31 | 241 | 6.4 | 17.7 | 0.00 | 0.00 | 0.00 | 22 | 1023.4 |
| 20260904140106 | 31 | 345 | 3.2 | 16.1 | 0.00 | 0.00 | 0.00 | 25 | 1023.6 |
| 20260904134605 | 31 | 165 | 4.8 | 19.3 | 0.00 | 0.00 | 0.00 | 21 | 1023.7 |
| 20260904133107 | 31 | 148 | 3.2 | 8.0 | 0.00 | 0.00 | 0.00 | 23 | 1023.6 |
| 20260904131639 | 31 | 212 | 1.6 | 8.0 | 0.00 | 0.00 | 0.00 | 21 | 1023.7 |
| 20260904124605 | 31 | 50 | 1.6 | 6.4 | 0.00 | 0.00 | 0.00 | 25 | 1023.7 |
| 20260904123110 | 31 | 137 | 3.2 | 14.5 | 0.00 | 0.00 | 0.00 | 24 | 1023.8 |
| 20260904121608 | 31 | 261 | 4.8 | 14.5 | 0.00 | 0.00 | 0.00 | 25 | 1023.7 |
| 20260904120107 | 31 | 177 | 3.2 | 17.7 | 0.00 | 0.00 | 0.00 | 22 | 1023.7 |
| 20260904114606 | 31 | 349 | 4.8 | 14.5 | 0.00 | 0.00 | 0.00 | 23 | 1023.6 |
| 20260904113110 | 31 | 289 | 6.4 | 16.1 | 0.00 | 0.00 | 0.00 | 24 | 1023.6 |
| 20260904111610 | 31 | 131 | 1.6 | 14.5 | 0.00 | 0.00 | 0.00 | 23 | 1023.6 |
| 20260904110107 | 31 | 288 | 1.6 | 14.5 | 0.00 | 0.00 | 0.00 | 24 | 1023.6 |
| 20260904104611 | 31 | 117 | 3.2 | 11.3 | 0.00 | 0.00 | 0.00 | 24 | 1023.5 |
| 20260904103108 | 31 | 156 | 4.8 | 12.9 | 0.00 | 0.00 | 0.00 | 23 | 1023.4 |
| 20260904101611 | 30 | 215 | 1.6 | 11.3 | 0.00 | 0.00 | 0.00 | 32 | 1023.5 |
| 20260904100111 | 30 | 255 | 3.2 | 11.3 | 0.00 | 0.00 | 0.00 | 30 | 1023.7 |
| 20260904094607 | 29 | 284 | 3.2 | 8.0 | 0.00 | 0.00 | 0.00 | 34 | 1023.8 |
| 20260904093107 | 29 | 0 | 3.2 | 8.0 | 0.00 | 0.00 | 0.00 | 35 | 1023.9 |
| 20260904091604 | 28 | 138 | 0.0 | 6.4 | 0.00 | 0.00 | 0.00 | 41 | 1023.9 |
| 20260904090106 | 27 | 0 | 0.0 | 0.0 | 0.00 | 0.00 | 0.00 | 47 | 1023.8 |
| 20260904084608 | 26 | 0 | 0.0 | 0.0 | 0.00 | 0.00 | 0.00 | 50 | 1023.7 |
| 20260904083106 | 24 | 0 | 0.0 | 0.0 | 0.00 | 0.00 | 0.00 | 56 | 1023.8 |
| 20260904081609 | 22 | 0 | 0.0 | 0.0 | 0.00 | 0.00 | 0.00 | 60 | 1023.8 |
| 20260904080110 | 20 | 0 | 0.0 | 0.0 | 0.00 | 0.00 | 0.00 | 65 | 1023.9 |
| 20260904074635 | 17 | 0 | 0.0 | 0.0 | 0.00 | 0.00 | 0.00 | 71 | 1023.8 |
| 20260904073102 | 15 | 0 | 0.0 | 0.0 | 0.00 | 0.00 | 0.00 | 80 | 1023.8 |
| 20260904071606 | 13 | 0 | 0.0 | 0.0 | 0.00 | 0.00 | 0.00 | 84 | 1023.9 |
| 20260904070108 | 12 | 0 | 0.0 | 0.0 | 0.00 | 0.00 | 0.00 | 86 | 1023.8 |
| 20260904064604 | 11 | 0 | 0.0 | 0.0 | 0.00 | 0.00 | 0.00 | 88 | 1023.8 |
| 20260904063111 | 10 | 0 | 0.0 | 0.0 | 0.00 | 0.00 | 0.00 | 88 | 1023.9 |
| 20260904061605 | 10 | 0 | 0.0 | 0.0 | 0.00 | 0.00 | 0.00 | 90 | 1023.6 |
| 20260904060115 | 9 | 0 | 0.0 | 0.0 | 0.00 | 0.00 | 0.00 | 90 | 1023.7 |
| 20260904054609 | 9 | 0 | 0.0 | 0.0 | 0.00 | 0.00 | 0.00 | 89 | 1023.5 |
| 20260904053105 | 9 | 0 | 0.0 | 0.0 | 0.00 | 0.00 | 0.00 | 89 | 1023.6 |
| 20260904051608 | 9 | 0 | 0.0 | 0.0 | 0.00 | 0.00 | 0.00 | 89 | 1023.6 |
| 20260904050106 | 9 | 0 | 0.0 | 0.0 | 0.00 | 0.00 | 0.00 | 89 | 1023.5 |
| 20260904044609 | 9 | 0 | 0.0 | 0.0 | 0.00 | 0.00 | 0.00 | 89 | 1023.5 |
| 20260904043104 | 9 | 0 | 0.0 | 0.0 | 0.00 | 0.00 | 0.00 | 88 | 1023.5 |
| 20260904041602 | 9 | 0 | 0.0 | 0.0 | 0.00 | 0.00 | 0.00 | 88 | 1023.4 |
| 20260904040109 | 9 | 0 | 0.0 | 0.0 | 0.00 | 0.00 | 0.00 | 88 | 1023.6 |
| 20260904034615 | 9 | 0 | 0.0 | 0.0 | 0.00 | 0.00 | 0.00 | 88 | 1023.7 |
| 20260904033104 | 9 | 0 | 0.0 | 0.0 | 0.00 | 0.00 | 0.00 | 87 | 1023.7 |
| 20260904031607 | 9 | 0 | 0.0 | 0.0 | 0.00 | 0.00 | 0.00 | 86 | 1023.9 |
| 20260904030105 | 10 | 0 | 0.0 | 0.0 | 0.00 | 0.00 | 0.00 | 86 | 1024.0 |
| 20260904024607 | 10 | 0 | 0.0 | 0.0 | 0.00 | 0.00 | 0.00 | 86 | 1024.1 |
| 20260904023108 | 10 | 0 | 0.0 | 0.0 | 0.00 | 0.00 | 0.00 | 85 | 1024.1 |
| 20260904021605 | 10 | 0 | 0.0 | 0.0 | 0.00 | 0.00 | 0.00 | 85 | 1024.3 |
| 20260904020107 | 10 | 0 | 0.0 | 0.0 | 0.00 | 0.00 | 0.00 | 84 | 1024.4 |
| 20260904014604 | 10 | 0 | 0.0 | 0.0 | 0.00 | 0.00 | 0.00 | 84 | 1024.6 |
| 20260904013103 | 11 | 0 | 0.0 | 0.0 | 0.00 | 0.00 | 0.00 | 83 | 1024.6 |
| 20260904011609 | 11 | 0 | 0.0 | 0.0 | 0.00 | 0.00 | 0.00 | 83 | 1024.6 |
| 20260904010105 | 11 | 0 | 0.0 | 0.0 | 0.00 | 0.00 | 0.00 | 82 | 1024.8 |
| 20260904004604 | 11 | 0 | 0.0 | 0.0 | 0.00 | 0.00 | 0.00 | 82 | 1024.9 |
| 20260904003106 | 11 | 0 | 0.0 | 0.0 | 0.00 | 0.00 | 0.00 | 82 | 1025.2 |
| 20260904001605 | 11 | 0 | 0.0 | 0.0 | 0.00 | 0.00 | 0.00 | 81 | 1025.2 |
| 20260904000136 | 11 | 0 | 0.0 | 0.0 | 0.00 | 0.00 | 0.00 | 81 | 1025.5 |
| 20260903234607 | 12 | 0 | 0.0 | 0.0 | 0.00 | 0.00 | 0.00 | 80 | 1025.6 |
| 20260903233107 | 12 | 0 | 0.0 | 0.0 | 0.00 | 0.00 | 0.00 | 79 | 1025.6 |
| 20260903231607 | 12 | 0 | 0.0 | 0.0 | 0.00 | 0.00 | 0.00 | 79 | 1025.8 |
| 20260903230114 | 12 | 0 | 0.0 | 0.0 | 0.00 | 0.00 | 0.00 | 78 | 1025.8 |
| 20260903224611 | 12 | 0 | 0.0 | 0.0 | 0.00 | 0.00 | 0.00 | 77 | 1025.9 |
| 20260903223106 | 13 | 0 | 0.0 | 0.0 | 0.00 | 0.00 | 0.00 | 76 | 1025.8 |
| 20260903221604 | 13 | 0 | 0.0 | 0.0 | 0.00 | 0.00 | 0.00 | 75 | 1025.9 |
| 20260903220121 | 13 | 0 | 0.0 | 0.0 | 0.00 | 0.00 | 0.00 | 74 | 1025.7 |
| 20260903214604 | 14 | 0 | 0.0 | 0.0 | 0.00 | 0.00 | 0.00 | 73 | 1025.7 |
| 20260903213107 | 14 | 0 | 0.0 | 0.0 | 0.00 | 0.00 | 0.00 | 72 | 1025.8 |
| 20260903211621 | 15 | 0 | 0.0 | 0.0 | 0.00 | 0.00 | 0.00 | 71 | 1025.8 |
| 20260903210111 | 15 | 0 | 0.0 | 0.0 | 0.00 | 0.00 | 0.00 | 69 | 1025.9 |
| 20260903204636 | 16 | 0 | 0.0 | 0.0 | 0.00 | 0.00 | 0.00 | 67 | 1026.0 |
| 20260903203108 | 16 | 0 | 0.0 | 0.0 | 0.00 | 0.00 | 0.00 | 65 | 1025.9 |
| 20260903201605 | 17 | 0 | 0.0 | 0.0 | 0.00 | 0.00 | 0.00 | 63 | 1026.0 |
| 20260903200105 | 17 | 0 | 0.0 | 0.0 | 0.00 | 0.00 | 0.00 | 62 | 1025.8 |